Regional Weather Roundup
Issued by NWS Grand Forks, ND

Home | Current Version | Previous Version | Graphics & Text | Print | Product List | Glossary On
Versions: 1 2 3 4 5 6 7 8 9 10 11 12 13 14 15 16 17 18 19 20 21 22 23 24 25 26 27 28 29 30 31 32 33 34 35 36 37 38 39 40 41 42 43 44 45 46 47 48 49 50
000
ASUS43 KFGF 261031
RWRFGF
PRAIRIE TO PINES  WEATHER ROUNDUP
NATIONAL WEATHER SERVICE EASTERN NORTH DAKOTA/GRAND FORKS ND
500 AM CDT SAT MAY 26 2018

 **SATELLITE DATA USED TO AUGMENT SKY COVER AT AUTOMATED STATIONS**
 *****  WEATHER ACROSS EASTERN NORTH DAKOTA  *****

CITY           SKY/WX    TMP DP  RH WIND       PRES   REMARKS
GRAND FORKS    FAIR      58  51  78 SW9       29.61S
GRAND FRKS AFB FAIR      59  51  75 SW7       29.62S
GRAND FRKS NWS   N/A     61  51  69 SW1       29.60R
DEVILS LAKE    FAIR      60  52  74 W8        29.68R
FARGO          FAIR      61  51  70 SW6       29.65R
WAHPETON ARPT  FAIR      61  48  63 W8        29.68S
$$

 ***** WEATHER ACROSS CENTRAL AND WESTERN NORTH DAKOTA  *****

CITY           SKY/WX    TMP DP  RH WIND       PRES   REMARKS
BISMARCK       FAIR      61  51  70 SW5       29.76R
MINOT          FAIR      60  48  64 SW9       29.71R
JAMESTOWN      FAIR      61  53  75 W8        29.70R
MINOT AFB      FAIR      57  47  70 W10       29.70R
GARRISON         N/A     54  46  74 CALM      29.74R
WILLISTON      FAIR      57  49  74 CALM      29.74S
DICKINSON      FAIR      54  48  80 W8        29.79S
HETTINGER      FAIR      46  42  86 CALM      29.84R
$$

 *****  OTHER AIRPORT OBSERVATIONS IN OUR AREA  *****

CITY           SKY/WX    TMP DP  RH WIND       PRES   REMARKS
WALHALLA       FAIR      63  59  88 VRB3      29.63R
GRAFTON AIRPOR FAIR      63  55  77 W7        29.64S
VALLEY CITY AR FAIR      61  61 100 W10       29.71R
CANDO          FAIR      55  55 100 W8        29.69S
CAVALIER APRT    N/A     61  54  77 W5        29.62S
GWINNER          N/A     61  54  77 W10       29.70S
SHEYENNE NWR     N/A     54  51  88 W6        29.95S
ROLLA          FAIR      61  55  82 W10       29.70R
 ***** THE ABOVE OBSERVATIONS ARE NON NWS ARE NOT QUALITY
       CONTROLLED AND MAY MIS-REPORT RAIN FOR SNOW...
$$

  *****  WEATHER ACROSS NORTHERN MINNESOTA  *****

CITY           SKY/WX    TMP DP  RH WIND       PRES   REMARKS
FLAG ISLAND    NOT AVBL
WARROAD        FAIR      63  57  82 W8        29.61R
ROSEAU         FAIR      64  57  77 W6        29.61R
HALLOCK        FAIR      61  55  82 W5        29.61S
THF RVR FALLS  FAIR      59  56  89 SW6       29.64R
BAUDETTE         N/A     61  55  81 MISG      29.59R
WASKISH        FAIR      63  57  82 CALM      29.61S
CROOKSTON      FAIR      59  52  77 SW5       29.63S
STEPHEN NDAWN    N/A     63  54  72 W5          N/A
GREENBUSH NDAW   N/A     59  55  88 W3          N/A
$$
  *****  WEATHER ACROSS CENTRAL AND WEST MINNESOTA  *****

CITY           SKY/WX    TMP DP  RH WIND       PRES   REMARKS
FOSSTON        FAIR      55  52  88 S6        29.65S
BEMIDJI        FAIR      58  51  79 CALM      29.64R
PARK RAPIDS    FAIR      60  53  77 W5        29.65R
ELBOW LAKE     FAIR      63  52  67 SW3       29.70R
WADENA         FAIR      63  54  72 W6        29.67S
DETROIT LAKES  FAIR      63  57  82 CALM      29.68S
MOORHEAD       FAIR      63  50  63 S5        29.66S
FERGUS FALLS   FAIR      63  54  72 W3        29.65R
MORRIS MN      FAIR      64  54  68 NW6       29.68S
STAPLES        FAIR      61  52  72 CALM      29.67R
$$
  *****  WEATHER ELSEWHERE ACROSS MINNESOTA  *****

CITY           SKY/WX    TMP DP  RH WIND       PRES   REMARKS
DULUTH         FAIR      61  58  90 S3        29.64S
INTRNTL FALLS  FAIR      58  57  97 SE3       29.59R
ELY            FAIR      61  57  88 CALM      29.63F
CLOQUET        FAIR      63  55  77 S6        29.65S
WHEATON        NOT AVBL
BRAINERD       FAIR      62  56  80 S5        29.66R
HIBBING        FAIR      54  53  97 CALM      29.63S FOG
ALEXANDRIA     FAIR      66  54  65 W5        29.70R
SAINT CLOUD    FAIR      62  58  86 S5        29.67S
MINNEAPOLIS    FAIR      67  62  84 SW6       29.69S
$$

  *****  WEATHER ACROSS SOUTH DAKOTA  *****

CITY           SKY/WX    TMP DP  RH WIND       PRES   REMARKS
SIOUX FALLS    FAIR      59  57  93 CALM      29.75S
BROOKINGS      FAIR      61  56  83 CALM      29.76S
WATERTOWN      FAIR      59  56  89 S5        29.74S
HURON          FAIR      61  54  77 CALM      29.74S
SISSETON         N/A     68  54  60 W3        29.68R
ABERDEEN       FAIR      58  52  80 W6        29.73R
MITCHELL       FAIR      64  56  75 W6        29.76S
PIERRE         FAIR      64  59  83 S3        29.78R
MOBRIDGE       FAIR      55  52  89 CALM      29.76R
RAPID CITY     FAIR      56  52  86 NW6       29.85S
$$

  *****  SOME WEATHER IN NEARBY STATES *****

CITY           SKY/WX    TMP DP  RH WIND       PRES   REMARKS
GLASGOW MT     FAIR      58  50  75 E9        29.73S
GREAT FALLS MT MOCLDY    58  49  72 SW7       29.80R
CHEYENNE WY    FAIR      49  43  80 W8        29.99F
SCOTTSBLUFF NE FAIR      59  53  80 E6        29.89S
OMAHA NE       FAIR      66  62  87 E3        29.75R
DES MOINES IA  FAIR      70  66  87 SE6       29.74S
DAVENPORT IA     N/A     66  59  78 VRB3      29.73F
CHICAGO IL     MOCLDY    71  63  75 S9        29.75F
EAU CLAIRE WI  FAIR      59  58  96 S5        29.70S
LA CROSSE WI   FAIR      64  61  90 SE6       29.72S
$$

  *****  SOME NATIONAL WEATHER *****

CITY           SKY/WX    TMP DP  RH WIND       PRES   REMARKS
LA GUARDIA NY  FAIR      75  64  68 SW13      29.81R
RALEIGH NC     FAIR      68  68 100 SW6       29.98S
ATLANTA GA     MOCLDY    70  66  87 CALM      29.93S
NEW ORLEANS LA FAIR      75  73  93 CALM      29.87S
OKLAHOMA CITY  FAIR      65  64  97 S5        29.85F
ALBUQUERQUE NM FAIR      61  11  14 E7        30.06R
SALT LAKE CITY CLEAR     64  36  35 CALM      29.83R
LOS ANGELES CA MOCLDY    58  52  80 W8        30.01F
BOISE ID       FAIR      58  51  78 N6        29.85F
SEATTLE WA     CLOUDY    53  44  71 SW5       30.10R
$$

*** WEATHER ACROSS MANITOBA...SASKATCHEWAN AND ONTARIO ***
                ***ONTARIO***

CITY           SKY/WX    TMP DP  RH WIND       PRES   REMARKS
GERALDTON      CLOUDY    46  45  93 E15G23    29.73R
THUNDER BAY    CLOUDY    50  50 100 N5        29.65S FOG
SIOUX LOOKOUT  LGT RAIN  59  59 100 E5        29.59R
TORONTO        CLOUDY    64  52  63 W8        29.75R
BIG TROUT LK   CLEAR     39  36  87 E12G20    29.85S
PICKLE LAKE    NOT AVBL
DRYDEN         CLOUDY    59  57  94 E5        29.60S
KENORA         CLOUDY    59  57  94 SE5       29.58F
$$
                *** MANITOBA***

CITY           SKY/WX    TMP DP  RH WIND       PRES   REMARKS
BRANDON        PTCLDY    55  54  94 W8        29.65R
DAUPHIN        FOG       57  57 100 N8        29.64S VSB 3/8
ISLAND LAKE    MOCLDY    52  43  71 E16G23    29.69S
PILOT MOUND      N/A     57  52  82 W6          N/A
THE PAS        CLOUDY    48  48 100 NE5       29.67F FOG
THOMPSON       MOCLDY    39  36  87 NE7       29.76
WINNIPEG       PTCLDY    55  54  94 W7        29.60R
LYNN LAKE      CLOUDY    46  39  76 SE9       29.73S
CHURCHILL      LGT SNOW  28  27  93 SE13      29.95F FOG     WCI  18
GILLAM         PTCLDY    30  28  93 E8        29.85F WCI  23
$$
                ***SASKATCHEWAN***

CITY           SKY/WX    TMP DP  RH WIND       PRES   REMARKS
ESTEVAN        CLEAR     52  50  93 W7        29.73S
KINDERSLEY     PTCLDY    61  52  72 SE13      29.68S
LLOYDMINSTER   CLOUDY    59  54  82 SW5       29.66R
PRINCE ALBERT  CLOUDY    55  55 100 CALM      29.70S FOG
REGINA         CLEAR     52  50  93 CALM      29.73S
YORKTON        CLOUDY    59  57  94 NW8       29.67S FOG
N. BATTLEFORD  CLEAR     52  50  93 E8        29.69F
LA RONGE       DRIZZLE   52  52 100 S5        29.69R FOG
SASKATOON      PTCLDY    45  45 100 W5        29.72R
SWIFT CURRENT  CLEAR     54  48  82 SE10      29.72S
$$
NOTE: THESE ARE AUTOMATED STATIONS WITH LIMITED QUALITY CONTROL
      "FAIR" INDICATES FEW OR NO CLOUDS BELOW 12,000 FEET WITH NO
      SIGNIFICANT WEATHER AND/OR OBSTRUCTIONS TO VISIBILITY.
      SKY/WX - SKY CONDITION AND SIGNIFICANT WEATHER.
      TMP - AIR TEMPERATURE.    DP   - DEWPOINT TEMPERATURE.
      RH  - RELATIVE HUMIDITY.  PRES - PRESSURE.
      HX  - HEAT INDEX.         WCI  - WIND CHILL INDEX.
$



USA.gov is the U.S. government's official web portal to all federal, state and local government web resources and services.